This demonstration page uses our WeatherBlox Daily Observations layout. Learn more.

Left ArrowRight Arrow

34.74481, -87.66753

Hourly Observations for June 4, 2019

Temp ( °F °C ) Dew Point ( °F °C ) Humidity (%) Winds ( mph kmh ) Pressure ( in mb ) Visibility ( mi km ) Precip ( " mm )
12:53 am 00:53 Clear 71 21.7 57 13.9 61 61 ENE 5 7 30.04 1017 10 16 0.00 0.00
1:53 am 01:53 Clear 72 22.2 56 13.3 57 57 ENE 6 9 30.04 1017 10 16 0.00 0.00
2:53 am 02:53 Clear 70 21.1 56 13.3 61 61 Calm 30.03 1017 10 16 0.00 0.00
3:53 am 03:53 Clear 70 21.1 56 13.3 61 61 Calm 30.03 1017 10 16 0.00 0.00
4:53 am 04:53 Clear 68 20 59 15 73 73 Calm 30.03 1017 10 16 0.00 0.00
5:53 am 05:53 Sunny 68 20 60 15.6 76 76 Calm 30.05 1018 10 16 0.00 0.00
6:53 am 06:53 Partly Cloudy 70 21.1 58 14.4 66 66 Calm 30.06 1018 10 16 0.00 0.00
7:53 am 07:53 Partly Cloudy 71 21.7 60 15.6 68 68 ESE 3 6 30.07 1018 10 16 0.00 0.00
8:53 am 08:53 Mostly Cloudy 73 22.8 57 13.9 57 57 SSE 5 7 30.08 1019 10 16 0.00 0.00
9:53 am 09:53 Mostly Sunny 77 25 58 14.4 52 52 SSE 7 11 30.07 1018 10 16 0.00 0.00
10:53 am 10:53 Cloudy 80 26.7 57 13.9 45 45 SE 7 11 30.07 1018 10 16 0.00 0.00
11:53 am 11:53 Mostly Cloudy 81 27.2 60 15.6 49 49 S 6 9 30.08 1019 10 16 0.00 0.00
12:53 pm 12:53 Sunny 85 29.4 58 14.4 40 40 SSE 5 7 30.06 1018 10 16 0.00 0.00
1:53 pm 13:53 Mostly Cloudy 85 29.4 61 16.1 45 45 NNE 5 7 30.05 1018 10 16 0.00 0.00
2:53 pm 14:53 Mostly Sunny 84 28.9 61 16.1 46 46 N 6 9 30.04 1017 10 16 0.00 0.00
3:53 pm 15:53 Partly Cloudy 84 28.9 60 15.6 44 44 NE 7 11 30.03 1017 10 16 0.00 0.00
4:53 pm 16:53 Sunny 82 27.8 65 18.3 56 56 NE 8 13 30.01 1016 10 16 0.00 0.00
5:53 pm 17:53 Sunny 85 29.4 62 16.7 46 46 E 8 13 29.98 1015 10 16 0.00 0.00
6:53 pm 18:53 Sunny 83 28.3 64 17.8 53 53 E 3 6 29.96 1015 10 16 0.00 0.00
7:53 pm 19:53 Sunny 80 26.7 64 17.8 58 58 SE 3 6 29.95 1014 10 16 0.00 0.00
8:53 pm 20:53 Clear 78 25.6 65 18.3 64 64 SE 3 6 29.96 1015 10 16 0.00 0.00
9:53 pm 21:53 Clear 77 25 64 17.8 64 64 ESE 3 6 29.97 1015 10 16 0.00 0.00
10:53 pm 22:53 Clear 77 25 65 18.3 66 66 SE 3 6 29.97 1015 10 16 0.00 0.00
11:53 pm 23:53 Clear 76 24.4 66 18.9 72 72 ESE 3 6 29.98 1015 10 16 0.00 0.00

Powered by AerisWeather